Location: Miles
(41.4492°N, 81.6087°W)
Time: 23:54:30
(UTC+00:00)

Courier 1B - Visible Passes

Search period start: 11 September 2024 00:00
Search period end: 21 September 2024 00:00
Orbit: 962 x 1208 km, 28.3° (Epoch: 11 September)

Date Brightness Start Highest point End Pass type
(mag) Time Alt. Az. Time Alt. Az. Time Alt. Az.
11 Sep 9.3 00:50:44 10° WSW 00:56:57 26° SSW 01:02:10 13° SE visible
11 Sep 9.9 02:46:51 10° SW 02:49:03 13° SW 02:49:03 13° SW visible
11 Sep 9.2 23:56:42 10° WSW 00:03:08 28° S 00:09:34 10° SE visible
12 Sep 9.6 01:51:47 10° WSW 01:56:24 17° SSW 01:58:29 15° S visible
13 Sep 9.6 00:57:16 10° WSW 01:02:41 20° SSW 01:07:58 10° SSE visible
14 Sep 9.5 00:03:02 10° WSW 00:08:56 24° SSW 00:14:50 10° SSE visible
14 Sep 10.0 02:00:38 10° SW 02:02:02 11° SSW 02:03:25 10° SSW visible
15 Sep 9.9 01:04:36 10° SW 01:08:22 14° SSW 01:12:07 10° S visible
16 Sep 9.9 00:09:51 10° WSW 00:14:39 18° SSW 00:19:30 10° SSE visible
18 Sep 10.2 00:18:11 10° SW 00:20:19 11° SSW 00:22:29 10° S visible
